Miscellaneous Local Product
Issued by NWS Hastings, NE

Home | Current Version | Previous Version | Graphics & Text | Print | Product List | Glossary On
Versions: 1 2 3 4 5 6 7 8 9 10 11 12 13 14 15 16 17 18 19 20 21 22 23 24 25 26 27 28 29 30 31 32 33 34 35 36 37 38 39 40 41 42 43 44 45 46 47 48 49 50
000
AXUS43 KGID 030402
MISGRI

GID CWA HOURLY WEATHER ROUNDUP
NATIONAL WEATHER SERVICE HASTINGS NE
1100 PM CDT MON MAY 02 2016

NOTE: "FAIR" INDICATES FEW OR NO CLOUDS BELOW 12,000 FEET WITH NO
SIGNIFICANT WEATHER AND/OR OBSTRUCTIONS TO VISIBILITY.

...SOUTH CENTRAL NEBRASKA...

CITY           SKY/WX    TMP DP  RH WIND       PRES   REMARKS
GRAND ISLAND   CLEAR     49  41  74 S6        30.05S
HASTINGS       CLEAR     50  38  63 SE5       30.05R
KEARNEY        CLEAR     46  37  71 S7        30.05S
ORD            PTCLDY    48  40  73 CALM      30.03R
YORK           PTCLDY    52  41  66 CALM      30.05S
AURORA         PTCLDY    50  41  70 S3        30.05S
LEXINGTON      MOCLDY    48  41  77 S3        30.04S
HOLDREGE       MOCLDY    48  40  75 SE6       30.05R
HEBRON         CLEAR     47  41  79 CALM      30.06R

...NEBRASKA PANHANDLE...

CITY           SKY/WX    TMP DP  RH WIND       PRES   REMARKS
CHADRON        LGT RAIN  49  43  80 SW7       30.04R
ALLIANCE       MOCLDY    47  40  76 NE7       30.07R
SCOTTSBLUFF    CLEAR     44  35  70 N7        30.06R
SIDNEY         CLEAR     43  34  70 NW9       30.05S

...WESTERN AND NORTH CENTRAL NEBRASKA...

CITY           SKY/WX    TMP DP  RH WIND       PRES   REMARKS
VALENTINE      LGT RAIN  46  43  89 CALM      30.06R
AINSWORTH      CLOUDY    48  43  82 N7        30.05R
ONEILL         CLOUDY    52  46  79 CALM      30.04R
BROKEN BOW     MOCLDY    44  39  82 E3        30.03R
IMPERIAL       CLOUDY    50  35  56 SW6       30.03F
NORTH PLATTE   CLOUDY    45  40  82 E6        30.02S
MCCOOK         CLOUDY    47  37  68 W6        30.04R

...EASTERN NEBRASKA...

CITY           SKY/WX    TMP DP  RH WIND       PRES   REMARKS
NORFOLK        PTCLDY    49  39  68 S8        30.03S
SO SIOUX CITY  CLOUDY    55  45  68 S5        30.04R
TEKAMAH        PTCLDY    51  45  79 CALM      30.04S
COLUMBUS       PTCLDY    50  36  57 S3        30.06R
ALBION         PTCLDY    49  39  70 SE3       30.04S
OMAHA EPPLEY   PTCLDY    52  41  66 CALM      30.05R
MILLARD        CLEAR     49  41  75 CALM      30.05R
LINCOLN        PTCLDY    50  39  66 CALM      30.06S
NEBRASKA CITY  CLEAR     51  40  66 S5        30.05F
BEATRICE       PTCLDY    49  42  76 CALM      30.05F
FALLS CITY     CLEAR     50  42  74 SW3       30.05S

...NORTHERN KANSAS...

CITY           SKY/WX    TMP DP  RH WIND       PRES   REMARKS
GOODLAND       CLOUDY    48  36  63 SW5       30.07R
HILL CITY      CLOUDY    50  41  71 E5        30.06R
NORTON         CLEAR     50  37  62 SE7       30.04
PHILLIPSBURG   CLEAR     52  41  66 CALM      30.05S
SMITH CENTER   PTCLDY    46  41  81 SE8       30.05F
BELOIT         CLEAR     50  39  66 SE5       30.06R
HAYS           CLOUDY    52  37  58 E8        30.07R
RUSSELL        PTCLDY    51  41  68 SE12      30.06R
CONCORDIA      PTCLDY    47  38  71 S6        30.06F
SALINA         CLOUDY    49  44  83 S5        30.08S
TOPEKA         PTCLDY    47  44  90 CALM      30.08S



USA.gov is the U.S. government's official web portal to all federal, state and local government web resources and services.